Vorticity
5 3 8 4 9 9 6 2 6 2 1 5 7 6 26 18 17 17 11 8 6 7 6 8 7 6 14 -11 8 7 12 17 9 20 -10 20 16 3 5 9 19 1 0 5
5 6 12 9 10 12 4 3 2 2 5 5 -3 13 20 11 10 11 16 14 7 9 7 6 5 8 18 -7 4 15 -1 10 0 20 12 3 -10 7 19 38 -1 5 8 6
8 9 14 9 7 9 9 9 3 5 3 12 1 15 22 12 14 13 16 15 14 9 7 5 1 3 15 4 0 9 30 2 15 -10 25 17 28 34 18 -8 11 6 7 7
14 10 9 11 7 5 6 10 11 4 4 1 14 27 15 13 14 13 21 12 16 13 9 8 7 12 5 8 5 13 3 2 9 26 27 22 28 -5 -0 11 10 -12 6 17
13 10 16 13 9 12 12 9 6 5 6 12 25 31 28 22 18 20 16 16 13 18 12 10 14 13 8 2 6 12 9 11 21 29 31 21 -0 2 10 19 8 2 10 11
11 13 12 14 13 14 9 15 8 1 18 10 39 -21 31 34 9 15 14 22 14 17 12 12 13 6 8 4 -4 6 21 31 30 8 22 3 5 -7 -2 -0 9 9 8 7
12 13 13 11 11 12 12 6 1 12 23 29 -0 14 28 -11 17 22 13 24 13 11 7 11 6 7 4 10 6 26 30 21 9 2 9 12 10 11 12 10 9 9 12 8
14 14 12 13 10 14 3 3 6 21 23 22 25 18 22 18 19 17 21 14 12 11 13 7 9 -14 12 5 37 26 9 13 2 6 7 3 6 9 7 8 10 6 11 9
13 11 10 7 8 4 5 1 66 7 5 23 28 26 27 18 13 13 16 11 15 10 12 2 14 11 5 19 14 9 5 8 9 8 9 13 13 12 8 12 9 5 1 5
6 6 5 5 3 8 8 14 23 14 25 9 17 14 11 11 19 13 6 6 10 18 0 7 17 3 13 15 50 12 -2 3 0 7 7 6 5 6 8 8 9 10 10 11
12 14 9 10 10 11 21 25 -10 6 -7 -14 22 8 9 -9 -2 8 7 10 3 2 -6 13 3 14 33 22 23 8 0 4 11 8 6 -1 9 3 7 7 7 11 11 13
16 15 15 15 12 13 17 34 -9 17 16 0 0 -4 10 9 10 -1 3 6 3 3 17 14 19 17 19 18 18 3 14 12 11 9 10 6 6 3 5 6 6 10 15 19
17 16 18 17 16 23 15 33 -9 16 0 3 -7 1 -1 3 12 12 10 16 9 12 16 20 24 15 12 -2 13 4 12 8 11 5 7 5 3 3 5 8 9 12 15 19
18 22 21 22 14 17 24 24 15 1 3 5 19 17 4 12 11 13 24 21 19 10 26 15 17 32 9 5 3 10 9 8 9 8 5 3 4 6 10 11 15 15 13 17
17 23 23 25 23 15 15 9 11 11 2 12 7 9 11 16 19 18 8 8 10 5 23 14 14 8 8 0 7 9 4 8 6 3 3 2 5 7 10 15 14 14 17 17
1 43 23 -2 12 15 -10 -3 -3 11 21 18 13 10 15 19 13 13 23 15 17 21 15 14 12 -6 8 7 7 4 6 8 5 5 3 5 7 11 14 14 13 16 24 13
35 4 16 -11 7 9 -3 5 4 14 12 11 11 9 10 10 12 12 18 19 23 17 15 9 1 8 8 9 3 9 8 7 6 4 4 8 9 10 16 13 11 8 16 20
9 3 3 20 -16 6 -3 1 6 6 8 8 11 9 12 17 14 12 15 8 4 9 6 8 9 13 9 5 4 6 6 5 4 4 7 9 11 14 15 13 9 9 10 20
4 3 15 8 15 -2 7 15 2 6 4 14 20 11 21 15 10 15 15 2 4 9 6 6 10 10 7 5 6 5 7 6 5 5 8 10 12 13 15 12 11 9 10 15
4 6 7 23 25 -11 4 14 11 20 23 15 14 13 11 17 1 9 17 9 -0 9 7 8 11 8 7 5 6 7 5 6 5 5 10 11 14 14 13 12 11 11 12 13
2 4 5 6 15 14 16 13 13 14 10 11 10 13 8 12 21 5 10 17 10 5 11 7 9 8 6 4 6 8 8 7 5 6 11 11 12 10 15 20 20 19 17 13
9 -8 21 9 1 8 10 11 14 14 11 16 7 9 10 10 10 7 8 4 10 7 4 8 6 6 10 6 8 8 8 8 5 9 12 10 15 11 24 13 20 32 19 19
8 17 8 12 3 10 16 17 17 19 8 8 12 12 6 6 9 11 9 12 9 10 8 10 7 7 7 6 8 8 9 8 7 10 12 12 8 21 10 7 5 14 26 22
8 10 12 9 5 15 16 13 13 10 8 12 10 15 9 10 14 12 2 7 6 6 9 9 4 8 9 9 8 9 8 8 6 9 11 11 8 17 12 11 12 13 13 16
11 13 7 5 4 4 5 10 9 8 11 14 13 11 12 9 5 5 12 18 6 8 6 7 7 9 9 10 9 9 9 8 8 8 10 13 14 5 18 10 6 12 15 15
11 16 16 9 5 5 4 18 12 5 9 11 11 11 9 9 8 8 10 9 15 10 10 13 6 10 9 10 12 9 8 7 7 8 9 10 11 14 9 9 13 14 9 13
14 11 14 2 7 11 10 14 13 14 13 13 13 15 9 10 10 13 16 13 10 10 18 12 13 7 8 10 10 9 8 8 6 6 6 7 9 9 11 14 14 9 12 15
Height
5558 5561 5565 5569 5570 5568 5574 5581 5588 5590 5586 5581 5583 5587 5602 5602 5602 5605 5607 5610 5616 5621 5624 5624 5626 5632 5633 5635 5636 5636 5638 5637 5640 5644 5644 5646 5646 5648 5648 5647 5652 5652 5650 5648
5545 5550 5554 5557 5558 5558 5563 5569 5575 5576 5571 5572 5575 5583 5583 5585 5589 5593 5597 5600 5606 5612 5614 5616 5619 5624 5627 5626 5628 5629 5630 5630 5631 5634 5636 5637 5640 5639 5640 5643 5643 5645 5643 5644
5533 5538 5542 5545 5548 5548 5552 5557 5560 5563 5559 5564 5567 5569 5571 5573 5579 5582 5586 5590 5595 5601 5605 5609 5613 5618 5620 5620 5621 5623 5623 5623 5623 5624 5625 5628 5628 5631 5635 5636 5637 5638 5640 5635
5519 5525 5529 5533 5536 5539 5542 5544 5548 5550 5548 5552 5557 5557 5561 5563 5566 5572 5575 5579 5583 5593 5597 5603 5607 5611 5612 5614 5614 5615 5615 5614 5614 5615 5616 5618 5621 5626 5627 5629 5630 5630 5633 5629
5505 5511 5517 5521 5525 5528 5531 5535 5539 5537 5541 5545 5544 5545 5548 5552 5557 5563 5567 5570 5578 5583 5589 5597 5602 5603 5604 5606 5607 5606 5606 5607 5607 5609 5611 5611 5613 5618 5620 5623 5624 5624 5623 5623
5491 5499 5505 5509 5514 5517 5521 5525 5526 5531 5531 5532 5531 5535 5542 5546 5551 5555 5560 5564 5569 5576 5585 5588 5590 5593 5596 5597 5600 5601 5599 5599 5600 5604 5604 5605 5609 5616 5616 5617 5618 5617 5617 5617
5479 5486 5492 5498 5504 5509 5513 5515 5520 5521 5521 5520 5525 5525 5536 5539 5543 5548 5554 5557 5564 5573 5575 5578 5583 5588 5589 5590 5591 5592 5592 5593 5595 5598 5601 5602 5609 5610 5610 5611 5612 5612 5611 5610
5468 5476 5483 5489 5495 5500 5505 5508 5511 5512 5513 5514 5516 5520 5529 5532 5535 5539 5546 5553 5561 5566 5568 5573 5578 5581 5583 5585 5585 5584 5587 5590 5593 5595 5598 5601 5602 5604 5605 5606 5608 5607 5606 5604
5459 5467 5474 5480 5486 5492 5498 5501 5503 5507 5507 5511 5513 5518 5523 5527 5531 5537 5542 5550 5556 5559 5564 5569 5573 5575 5578 5579 5582 5583 5587 5589 5592 5592 5594 5596 5600 5600 5601 5602 5603 5600 5599 5598
5451 5459 5466 5473 5479 5485 5491 5495 5499 5501 5503 5509 5514 5519 5523 5526 5530 5534 5540 5546 5550 5554 5559 5564 5566 5569 5571 5574 5577 5581 5584 5587 5588 5590 5590 5593 5595 5596 5596 5597 5600 5594 5593 5592
5444 5451 5458 5466 5472 5479 5484 5488 5493 5496 5499 5507 5513 5517 5521 5525 5529 5534 5539 5543 5546 5550 5554 5557 5561 5562 5566 5568 5572 5576 5581 5583 5585 5586 5587 5590 5591 5590 5591 5590 5588 5587 5584 5583
5437 5444 5452 5459 5466 5472 5477 5482 5489 5493 5496 5503 5508 5513 5519 5523 5524 5528 5532 5535 5539 5545 5548 5552 5555 5557 5562 5566 5569 5574 5578 5580 5581 5583 5585 5585 5586 5586 5584 5582 5581 5578 5576 5574
5432 5439 5446 5454 5460 5466 5471 5477 5483 5489 5496 5500 5505 5509 5514 5517 5521 5524 5527 5531 5536 5539 5543 5547 5552 5555 5560 5563 5568 5571 5574 5576 5579 5580 5581 5580 5580 5580 5578 5576 5572 5570 5569 5566
5428 5435 5442 5450 5456 5462 5468 5474 5480 5487 5492 5497 5501 5504 5509 5512 5517 5519 5521 5524 5529 5534 5538 5542 5547 5552 5556 5561 5566 5569 5572 5575 5576 5576 5576 5576 5576 5575 5573 5569 5566 5564 5562 5560
5425 5432 5439 5447 5453 5460 5466 5470 5477 5483 5490 5493 5497 5502 5505 5508 5511 5515 5516 5520 5524 5530 5535 5539 5545 5550 5554 5558 5562 5566 5569 5570 5571 5571 5573 5572 5571 5569 5565 5562 5560 5557 5555 5555
5423 5431 5437 5446 5454 5459 5462 5468 5475 5481 5486 5491 5495 5500 5502 5506 5508 5511 5514 5517 5522 5527 5532 5539 5543 5549 5553 5556 5561 5565 5566 5566 5567 5569 5568 5568 5565 5562 5559 5557 5555 5552 5550 5549
5423 5430 5438 5447 5452 5455 5463 5470 5476 5479 5484 5488 5493 5497 5500 5503 5506 5510 5514 5519 5524 5529 5534 5539 5544 5547 5550 5555 5559 5561 5562 5563 5564 5564 5563 5561 5558 5555 5553 5552 5550 5548 5545 5544
5423 5431 5440 5444 5451 5458 5463 5469 5474 5479 5483 5488 5491 5495 5499 5503 5506 5510 5515 5519 5525 5529 5533 5537 5541 5545 5549 5553 5555 5557 5559 5560 5560 5559 5557 5555 5552 5549 5548 5546 5545 5543 5541 5539
5424 5432 5438 5444 5451 5459 5464 5469 5473 5477 5483 5487 5491 5495 5499 5503 5506 5511 5516 5520 5524 5528 5533 5536 5540 5542 5547 5550 5551 5553 5555 5556 5556 5554 5552 5549 5547 5544 5543 5541 5539 5537 5536 5534
5425 5433 5438 5444 5450 5458 5464 5469 5473 5477 5481 5485 5489 5494 5499 5504 5507 5512 5515 5519 5523 5527 5531 5534 5537 5540 5545 5547 5547 5549 5550 5551 5550 5548 5546 5544 5542 5540 5537 5535 5533 5532 5530 5529
5427 5434 5440 5446 5451 5456 5462 5467 5472 5476 5480 5485 5488 5492 5497 5502 5507 5510 5515 5519 5522 5525 5530 5533 5535 5538 5542 5543 5544 5546 5546 5546 5545 5543 5541 5539 5537 5534 5532 5529 5526 5525 5524 5523
5428 5436 5441 5445 5451 5456 5461 5466 5471 5475 5480 5484 5487 5492 5497 5500 5505 5508 5513 5516 5520 5523 5527 5529 5531 5535 5538 5538 5540 5541 5542 5541 5540 5539 5537 5535 5532 5529 5526 5523 5521 5518 5517 5517
5429 5435 5440 5445 5451 5454 5460 5465 5471 5476 5480 5483 5488 5492 5495 5499 5503 5507 5510 5514 5518 5521 5523 5526 5528 5531 5533 5534 5536 5537 5537 5536 5535 5534 5532 5530 5527 5524 5522 5520 5517 5514 5512 5512
5430 5435 5440 5446 5452 5459 5463 5467 5470 5474 5477 5481 5486 5489 5494 5498 5501 5504 5507 5511 5514 5518 5521 5523 5525 5527 5529 5530 5531 5532 5532 5532 5530 5529 5527 5524 5522 5519 5517 5515 5513 5511 5508 5507
5431 5436 5442 5449 5454 5458 5462 5465 5469 5473 5477 5481 5485 5488 5492 5494 5498 5501 5504 5508 5510 5515 5517 5519 5521 5523 5524 5526 5526 5527 5527 5526 5525 5524 5523 5520 5518 5516 5513 5510 5509 5508 5505 5502
5432 5438 5444 5450 5454 5458 5462 5465 5469 5472 5475 5479 5482 5485 5489 5492 5496 5499 5501 5505 5508 5510 5512 5514 5516 5518 5519 5520 5521 5522 5521 5521 5520 5519 5518 5516 5514 5511 5509 5506 5504 5503 5502 5498
5433 5439 5445 5450 5454 5459 5462 5465 5468 5470 5474 5477 5480 5483 5486 5490 5493 5496 5499 5501 5503 5505 5508 5510 5511 5513 5514 5515 5516 5516 5516 5516 5515 5514 5512 5511 5509 5506 5503 5501 5499 5498 5496 5494